Regional Weather Roundup
Issued by NWS

Home | Current Version | Previous Version | Graphics & Text | Print | Product List | Glossary On
Versions: 1 2 3 4 5 6 7 8 9 10 11 12 13 14 15 16 17 18 19 20 21 22 23 24 25 26 27 28 29 30 31 32 33 34 35 36 37 38 39 40 41 42 43 44 45 46 47 48 49 50
000
ASUS43 KMKX 281621
RWRWI

WISCONSIN REGIONAL WEATHER ROUNDUP
NATIONAL WEATHER SERVICE MILWAUKEE/SULLIVAN WI
1100 AM CDT WED JUN 28 2017

NOTE: "FAIR" INDICATES FEW OR NO CLOUDS BELOW 12,000 FEET WITH NO
SIGNIFICANT WEATHER AND/OR OBSTRUCTIONS TO VISIBILITY.

WIZ001-002-006>008-014>016-023>028-281700-
NORTHWEST WISCONSIN

CITY           SKY/WX    TMP DP  RH WIND       PRES   REMARKS
SUPERIOR ARPT  NOT AVBL
ASHLAND        CLOUDY    65  56  72 S3        29.68F
HAYWARD        RAIN      59  57  93 SE9       29.67F FOG
SIREN          LGT RAIN  61  60  96 S10       29.62F
CUMBERLAND     LGT RAIN  59  57  94 SE9       29.66F
RICE LAKE      LGT RAIN  61  59  94 SE8       29.68F
CHETEK         RAIN      60  60  99 SE7       29.68F
LADYSMITH      LGT RAIN  60  57  90 SE10      29.72F
EAU CLAIRE     RAIN      65  63  93 S9        29.68F FOG
MENOMONIE      LGT RAIN  65  64  96 S14G23    29.67S
NEW RICHMOND   CLOUDY    66  64  94 S16G23    29.64F
OSCEOLA        CLOUDY    67  67 100 S10G18    29.65F
$$

WIZ003>005-009-010-017-018-281700-
NORTH CENTRAL WISCONSIN

CITY           SKY/WX    TMP DP  RH WIND       PRES   REMARKS
MANITOWISH WTR CLOUDY    59  57  91 S9        29.75S
ARBOR VITAE    CLOUDY    62  56  81 S6        29.74F
WOODRUFF       CLOUDY    62  56  81 S6        29.74F
RHINELANDER    CLOUDY    59  58  96 VRB7      29.76F
EAGLE RIVER    DRIZZLE   58  56  94 S5        29.75F
LAND O LAKES   CLOUDY    63  55  75 S8        29.77F
PHILLIPS       LGT RAIN  61  58  90 S9        29.73F
TOMAHAWK       NOT AVBL
MEDFORD        HVY RAIN  58  56  93 SE8       29.75S
MERRILL        CLOUDY    62  59  90 S5        29.78R
$$

WIZ029-030-035-036-043>047-281700-
CENTRAL WISCONSIN

CITY           SKY/WX    TMP DP  RH WIND       PRES   REMARKS
WAUSAU         CLOUDY    60  58  92 S6        29.76F
MOSINEE        CLOUDY    61  59  94 S12       29.79R
MARSHFIELD     LGT RAIN  62  58  86 S8        29.74F
STEVENS POINT  CLOUDY    61  58  91 S8        29.79R
WAUPACA        DRIZZLE   66  60  81 S8        29.80R
WAUTOMA        LGT RAIN  63  61  94 S9        29.79R
WISC RAPIDS    LGT RAIN  63  60  90 S8        29.78R
CAMP DOUGLAS   LGT RAIN  64  63  94 S13       29.75F
$$

WIZ011>013-019>022-031-037>040-048>050-281700-
NORTHEAST WISCONSIN

CITY           SKY/WX    TMP DP  RH WIND       PRES   REMARKS
ANTIGO         CLOUDY    59  57  92 SE10      29.76F
SHAWANO        LGT RAIN  66  57  72 S9        29.79F
OCONTO         CLOUDY    63  58  86 S6        29.82F
STURGEON BAY   LGT RAIN  60  55  83 S13       29.86S
GREEN BAY      CLOUDY    66  61  84 S15       29.82F
MANITOWOC      LGT RAIN  58  55  90 S15       29.87F
APPLETON       LGT RAIN  64  55  72 SE15G22   29.78F
CLINTONVILLE   LGT RAIN  63  55  77 SE13      29.78S
OSHKOSH        CLOUDY    66  57  72 S14G28    29.79F
$$

WIZ032>034-041-042-053>061-281700-
SOUTHWEST WISCONSIN

CITY           SKY/WX    TMP DP  RH WIND       PRES   REMARKS
LA CROSSE      LGT RAIN  70  66  87 S14       29.72F
SPARTA         LGT RAIN  64  63  95 S14G20    29.74S
VIROQUA        CLOUDY    64  64 100 S13G24    29.76F
BOSCOBEL       LGT RAIN  68  64  87 S8        29.78F
PRAIRIE DU CHI CLOUDY    67  64  90 S9G16     29.76S
PLATTEVILLE    CLOUDY    66  66 100 S20G25    29.80F
$$

WIZ056-057-062-063-064-067-068-281700-
SOUTH CENTRAL WISCONSIN

CITY           SKY/WX    TMP DP  RH WIND       PRES   REMARKS
REEDSBURG      RAIN      63  63 100 S12G24    29.79S
BARABOO/DELLS  DRIZZLE   63  60  91 SW14G20   29.79S
LONE ROCK      LGT RAIN  66  62  87 S10       29.78F
MINERAL POINT  LGT RAIN  64  64 100 S12G22    29.81F
MADISON        LGT RAIN  63  61  93 S13G24    29.82F
MIDDLETON      CLOUDY    65  63  93 S15G22    29.82R
WATERTOWN      LGT RAIN  61  61 100 SE13G18   29.80F
MONROE         CLOUDY    63  61  94 S22G28    29.86R
JANESVILLE     LGT RAIN  63  63 100 SE18      29.84F
$$

WIZ051-052-058>065-066-070>072-281700-
SOUTHEAST WISCONSIN

CITY           SKY/WX    TMP DP  RH WIND       PRES   REMARKS
MILWAUKEE      LGT RAIN  65  59  81 S10       29.93F
WAUKESHA       LGT RAIN  61  57  88 S9        29.92F
MILWAUKEE/TIMM LGT RAIN  63  57  82 S15G21    29.92F
RACINE         LGT RAIN  67  55  65 S16G29    29.96S
KENOSHA        LGT RAIN  65  56  72 S18G24    29.96S
FOND DU LAC    CLOUDY    66  57  72 S24G33    29.79F
SHEBOYGAN      LGT RAIN  63  60  90 SE12      29.88F
WEST BEND      CLOUDY    63  59  88 S12G17    29.87F
JUNEAU         LGT RAIN  62  59  91 SE17G23   29.80F
$$

LSZ147-162-281700-
LAKE SUPERIOR

STATION/POSITION TIME  TEMP    WIND        PRES    WAVE
                       AIR SEA DIR/SP/G            HT/PER
                 (UTC) (F)     (DEG/KT/KT) (MB)    (FT/S)
W MID LAKE BUOY  1550   45 39   80/  8/  8 1006.4F   1
DEVILS ISLAND    1600   56      CALM  /  2 1006.0R
SAXON HARBOR     1540   65     200/  7/ 12 1005.1S
$$

LMZ867-665-643>646-281700-
LAKE MICHIGAN

STATION/POSITION TIME  TEMP    WIND        PRES    WAVE
                       AIR SEA DIR/SP/G            HT/PER
                 (UTC) (F)     (DEG/KT/KT) (MB)    (FT/S)
CHAMBERS ISLAND  1540   65     150/ 10/ 15 1010.5F
S GREEN BAY BUOY 1600   61     170/ 16/ 19 1009.8
N MID LAKE BUOY  1550   58 56  170/ 16/ 17 1012.3F   3/ 5
NORTHPORT PIER   1530   64     150/ 12/ 21 1011.2F
KEWAUNEE LAKESHO 1554   56     180/ 18/ 19 1010.9F
SHEBOYGAN LAKESH 1600   54     180/ 18/ 19 1011.6F
PORT WASHINGTON  1530   57     190/  6/ 11 1013.5F
ATWATER BUOY     1509   64 55  200/ 16/ 25 1013.7R
MILWAUKEE LAKESH 1600   63     190/ 13/ 15   N/A
S MID LAKE BUOY  1550   64 61  180/ 19/ 21 1014.8F   4/ 5
KENOSHA   LAKESH 1600   65     190/ 14/ 19 1014.2
$$

TC  - TEMPERATURE IN CELSIUS
VSB - VISIBILITY IN STATUTE MILES
WCI - WIND CHILL INDEX
HX  - HEAT INDEX





USA.gov is the U.S. government's official web portal to all federal, state and local government web resources and services.